Location: Allison's Woods
(35.8809°N, 80.8140°W)
Time: 17:41:31
(UTC-04:00)

Iridium 39 - Visible Passes

Search period start: 21 August 2017 00:00
Search period end: 31 August 2017 00:00
Orbit: 723 x 753 km, 86.4° (Epoch: 21 August)

Date Brightness Start Highest point End Pass type
(mag) Time Alt. Az. Time Alt. Az. Time Alt. Az.
21 Aug 8.4 02:34:54 18° NNE 02:34:54 18° NNE 02:36:15 10° NNE visible
21 Aug 8.4 04:14:33 10° NW 04:14:33 10° NW 04:14:42 10° NW visible
22 Aug 8.2 03:29:41 17° NNW 03:29:41 17° NNW 03:30:52 10° NNW visible
23 Aug 8.4 02:44:47 17° N 02:44:47 17° N 02:45:55 10° N visible
24 Aug 8.9 01:59:54 11° NNE 01:59:54 11° NNE 02:00:11 10° NNE visible
24 Aug 8.5 03:39:33 11° NNW 03:39:33 11° NNW 03:39:53 10° NNW visible
25 Aug 8.5 02:54:39 14° N 02:54:39 14° N 02:55:25 10° N visible
26 Aug 8.8 02:09:44 12° NNE 02:09:44 12° NNE 02:10:06 10° NNE visible
27 Aug 8.7 03:04:28 11° NNW 03:04:28 11° NNW 03:04:40 10° NNW visible
28 Aug 8.9 02:19:33 11° N 02:19:33 11° N 02:19:46 10° N visible
